Location: Laterina
(43.5167°N, 11.7167°E)
Time: 23:18:02
(UTC+00:00)

Cosmos 1125 Rocket - Pass Details

Date: 22 June 2021
Orbit: 757 x 780 km, 74.0° (Epoch: 29 July)

Event Time Altitude Azimuth Distance (km) Brightness Sun altitude
Rises 23:15:07 0° 356° (N) 3,245 8.2 -23.1°
Reaches altitude 10° 23:19:44 10° 33° (NNE) 2,320 6.8 -23.0°
Maximum altitude 23:21:01 11° 47° (NE) 2,264 6.5 -23.0°
Drops below altitude 10° 23:22:18 10° 62° (ENE) 2,321 6.3 -23.0°
Sets 23:26:54 0° 98° (E) 3,249 6.7 -23.0°
